Flag for Pakistan Weather past 2 weeks in Islamabad, Pakistan

Now
59 °F

Passing clouds.


Feels Like: 58 °F
Forecast: 56 / 89 °F
Wind: 7 mph from Northeast

Location: Islamabad Airport


UV Index: 7 (High)

Visibility: 5 mi


Pressure: 30.01 "Hg

Humidity: 77%

Dew point: 52 °F

Location of IslamabadLocation

Historic Weather in Islamabad

°F

Islamabad temperature yesterday

Maximum temperature yesterday: 77 °F (at 4:00 PM)
Minimum temperature yesterday: 59 °F (at 12:00 AM)
Average temperature yesterday: 65 °F

Past Weeks' High & Low Weather Summary

 TemperatureHumidityPressure
High86 °F (Apr 10, 1:00 PM)94% (Apr 8, 6:00 AM)30.07 "Hg (Apr 8, 6:00 AM)
Low55 °F (Apr 9, 6:00 AM)16% (Apr 10, 2:00 PM)29.80 "Hg (Apr 12, 5:00 PM)
Average70 °F57%29.95 "Hg
* Reported Apr 5 5:00 AM — Apr 20 5:00 AM, Islamabad, Weather by CustomWeather, © 2014

Note: Actual official high and low records may vary slightly from our data, if they occured in-between our weather recording intervals... More about our weather records

Advertising

Historic Weather Conditions — Data for Previous 24 hours

 ConditionsComfort  
Time TempWeatherWind HumidityBarometerVisibility
5:00 AM
Apr 20
57 °FPassing clouds.12 mph82%30.01 "Hg5 mi
4:00 AM57 °FPassing clouds.5 mph82%30.01 "Hg5 mi
3:00 AM59 °FPassing clouds.5 mph77%30.01 "Hg5 mi
2:00 AM59 °FPassing clouds.5 mph77%30.01 "Hg5 mi
1:00 AM59 °FPassing clouds.5 mph77%30.04 "Hg5 mi
12:00 AM59 °FPassing clouds.7 mph77%30.04 "Hg5 mi
11:00 PM
Apr 19
61 °FClear.14 mph77%30.04 "Hg10 mi
10:00 PM63 °FPassing clouds.7 mph68%30.04 "HgN/A
9:00 PM64 °FPassing clouds.9 mph60%30.01 "HgN/A
8:00 PM66 °FPassing clouds.9 mph56%30.01 "HgN/A
7:00 PM68 °FPassing clouds.16 mph56%29.98 "HgN/A
6:00 PM70 °FPassing clouds.18 mph57%29.98 "HgN/A
5:00 PM73 °FScattered clouds.21 mph53%29.98 "HgN/A
4:00 PM77 °FScattered clouds.5 mph51%29.98 "HgN/A
3:00 PM75 °FScattered clouds.9 mph54%30.01 "HgN/A
2:00 PM73 °FScattered clouds.12 mph57%30.01 "HgN/A
1:00 PM72 °FPartly sunny.12 mph57%30.04 "HgN/A
12:00 PM70 °FScattered clouds.7 mph60%30.04 "HgN/A
11:00 AM68 °FScattered clouds.7 mph64%30.07 "HgN/A
10:00 AM66 °FPartly sunny.7 mph68%30.07 "HgN/A
9:00 AM63 °FBroken clouds.7 mph77%30.04 "HgN/A
8:00 AM63 °FBroken clouds.9 mph77%30.04 "HgN/A
7:00 AM63 °FBroken clouds.9 mph73%30.01 "HgN/A
6:00 AM61 °FBroken clouds.9 mph83%29.98 "Hg4 mi
Weather by CustomWeather, © 2014

See weather overview